Time,TemperatureF,DewpointF,PressureIn,WindDirection,WindDirectionDegrees,WindSpeedMPH,WindSpeedGustMPH,Humidity,HourlyPrecipIn,Conditions,Clouds,dailyrainin,SoftwareType,DateUTC
2013-05-03 00:00:00,39.0,38.0,30.51,North,360,0.0,0.0,96,0.00,,CLR,0.00,VWS V14.01,2013-05-03 04:00:00,
2013-05-03 00:10:00,39.0,38.0,30.51,North,360,0.0,0.0,96,0.00,,CLR,0.00,VWS V14.01,2013-05-03 04:10:00,
2013-05-03 00:20:00,39.0,38.0,30.51,North,360,0.0,0.0,96,0.00,,CLR,0.00,VWS V14.01,2013-05-03 04:20:00,
2013-05-03 00:30:00,39.0,38.0,30.51,North,360,0.0,0.0,96,0.00,,CLR,0.00,VWS V14.01,2013-05-03 04:30:00,
2013-05-03 00:40:00,39.0,38.0,30.51,North,360,0.0,0.0,96,0.00,,CLR,0.00,VWS V14.01,2013-05-03 04:40:00,
2013-05-03 00:50:00,39.0,38.0,30.51,North,360,0.0,0.0,96,0.00,,CLR,0.00,VWS V14.01,2013-05-03 04:50:00,
2013-05-03 01:00:00,39.0,38.0,30.50,North,360,0.0,0.0,96,0.00,,CLR,0.00,VWS V14.01,2013-05-03 05:00:00,
2013-05-03 01:10:00,39.0,38.0,30.50,North,360,0.0,0.0,96,0.00,,CLR,0.00,VWS V14.01,2013-05-03 05:10:00,
2013-05-03 01:20:00,40.0,39.0,30.49,NE,45,0.0,0.0,96,0.00,,CLR,0.00,VWS V14.01,2013-05-03 05:20:00,
2013-05-03 01:30:00,39.0,38.0,30.49,NE,45,0.0,0.0,96,0.00,,CLR,0.00,VWS V14.01,2013-05-03 05:30:00,
2013-05-03 01:40:00,39.0,38.0,30.49,NNW,337,0.0,0.0,96,0.00,,CLR,0.00,VWS V14.01,2013-05-03 05:40:00,
2013-05-03 01:50:00,39.0,38.0,30.49,NNW,337,0.0,0.0,96,0.00,,CLR,0.00,VWS V14.01,2013-05-03 05:50:00,
2013-05-03 02:00:00,39.0,38.0,30.49,NNW,337,0.0,0.0,96,0.00,,CLR,0.00,VWS V14.01,2013-05-03 06:00:00,
2013-05-03 02:10:00,39.0,38.0,30.50,NNW,337,0.0,0.0,96,0.00,,CLR,0.00,VWS V14.01,2013-05-03 06:10:00,
2013-05-03 02:20:00,39.0,38.0,30.50,NNW,337,0.0,0.0,96,0.00,,CLR,0.00,VWS V14.01,2013-05-03 06:20:00,
2013-05-03 02:30:00,39.0,38.0,30.50,NNW,337,0.0,0.0,96,0.00,,CLR,0.00,VWS V14.01,2013-05-03 06:30:00,
2013-05-03 02:40:00,39.0,38.0,30.50,NNW,337,0.0,0.0,96,0.00,,CLR,0.00,VWS V14.01,2013-05-03 06:40:00,
2013-05-03 02:50:00,39.0,38.0,30.50,NE,45,0.0,0.0,96,0.00,,CLR,0.00,VWS V14.01,2013-05-03 06:50:00,
2013-05-03 03:00:00,39.0,38.0,30.50,North,360,0.0,0.0,96,0.00,,CLR,0.00,VWS V14.01,2013-05-03 07:00:00,
2013-05-03 03:10:00,39.0,38.0,30.50,North,360,0.0,0.0,96,0.00,,CLR,0.00,VWS V14.01,2013-05-03 07:10:00,
2013-05-03 03:20:00,38.0,37.0,30.51,NE,45,0.0,0.0,96,0.00,,CLR,0.00,VWS V14.01,2013-05-03 07:20:00,
2013-05-03 03:30:00,38.0,37.0,30.51,NNE,22,0.0,0.0,96,0.00,,CLR,0.00,VWS V14.01,2013-05-03 07:30:00,
2013-05-03 03:40:00,39.0,38.0,30.51,NNE,22,0.0,0.0,96,0.00,,CLR,0.00,VWS V14.01,2013-05-03 07:40:00,
2013-05-03 03:50:00,39.0,38.0,30.51,NE,45,0.0,0.0,96,0.00,,CLR,0.00,VWS V14.01,2013-05-03 07:50:00,
2013-05-03 04:00:00,39.0,38.0,30.51,NE,45,0.0,0.0,96,0.00,,CLR,0.00,VWS V14.01,2013-05-03 08:00:00,
2013-05-03 04:10:00,39.0,38.0,30.51,NE,45,0.0,0.0,96,0.00,,CLR,0.00,VWS V14.01,2013-05-03 08:10:00,
2013-05-03 04:20:00,39.0,38.0,30.52,NE,45,0.0,0.0,96,0.00,,CLR,0.00,VWS V14.01,2013-05-03 08:20:00,
2013-05-03 04:30:00,39.0,38.0,30.52,NE,45,0.0,0.0,96,0.00,,CLR,0.00,VWS V14.01,2013-05-03 08:30:00,
2013-05-03 04:40:00,39.0,38.0,30.52,NE,45,0.0,0.0,96,0.00,,CLR,0.00,VWS V14.01,2013-05-03 08:40:00,
2013-05-03 04:50:00,39.0,38.0,30.53,NE,45,0.0,0.0,96,0.00,,CLR,0.00,VWS V14.01,2013-05-03 08:50:00,
2013-05-03 05:00:00,39.0,38.0,30.53,NE,45,0.0,0.0,96,0.00,,CLR,0.00,VWS V14.01,2013-05-03 09:00:00,
2013-05-03 05:10:00,39.0,38.0,30.53,ENE,67,0.0,0.0,96,0.00,,CLR,0.00,VWS V14.01,2013-05-03 09:10:00,
2013-05-03 05:20:00,40.0,39.0,30.53,North,360,0.0,0.0,96,0.00,,CLR,0.00,VWS V14.01,2013-05-03 09:20:00,
2013-05-03 05:30:00,40.0,39.0,30.54,NNE,22,0.0,0.0,96,0.00,,CLR,0.00,VWS V14.01,2013-05-03 09:30:00,
2013-05-03 05:40:00,41.0,40.0,30.54,NE,45,1.0,1.0,96,0.00,,CLR,0.00,VWS V14.01,2013-05-03 09:40:00,
2013-05-03 05:50:00,42.0,40.9,30.55,NE,45,0.0,1.0,96,0.00,,CLR,0.00,VWS V14.01,2013-05-03 09:50:00,
2013-05-03 06:00:00,43.0,41.9,30.55,ENE,67,1.0,1.0,96,0.00,,CLR,0.00,VWS V14.01,2013-05-03 10:00:00,
2013-05-03 06:10:00,44.0,42.4,30.55,NE,45,0.0,1.0,94,0.00,,CLR,0.00,VWS V14.01,2013-05-03 10:10:00,
2013-05-03 06:20:00,44.0,41.5,30.55,East,90,1.0,1.0,91,0.00,,CLR,0.00,VWS V14.01,2013-05-03 10:20:00,
2013-05-03 06:30:00,45.0,42.2,30.56,NE,45,0.0,1.0,90,0.00,,CLR,0.00,VWS V14.01,2013-05-03 10:30:00,
2013-05-03 06:40:00,45.0,42.0,30.56,NE,45,1.0,1.0,89,0.00,,CLR,0.00,VWS V14.01,2013-05-03 10:40:00,
2013-05-03 06:50:00,46.0,42.3,30.56,ENE,67,1.0,1.0,87,0.00,,CLR,0.00,VWS V14.01,2013-05-03 10:50:00,
2013-05-03 07:00:00,48.0,42.5,30.57,ESE,112,1.0,1.0,81,0.00,,CLR,0.00,VWS V14.01,2013-05-03 11:00:00,
2013-05-03 07:10:00,48.0,41.5,30.57,ENE,67,1.0,1.0,78,0.00,,CLR,0.00,VWS V14.01,2013-05-03 11:10:00,
2013-05-03 07:20:00,49.0,41.4,30.57,ESE,112,1.0,1.0,75,0.00,,CLR,0.00,VWS V14.01,2013-05-03 11:20:00,
2013-05-03 07:30:00,50.0,41.3,30.58,NE,45,2.0,2.0,72,0.00,,CLR,0.00,VWS V14.01,2013-05-03 11:30:00,
2013-05-03 07:40:00,51.0,41.6,30.58,NNE,22,1.0,2.0,70,0.00,,CLR,0.00,VWS V14.01,2013-05-03 11:40:00,
2013-05-03 07:50:00,52.0,41.4,30.58,East,90,1.0,1.0,67,0.00,,CLR,0.00,VWS V14.01,2013-05-03 11:50:00,
2013-05-03 08:00:00,52.0,40.2,30.58,SE,135,1.0,1.0,64,0.00,,CLR,0.00,VWS V14.01,2013-05-03 12:00:00,
2013-05-03 08:10:00,53.0,39.9,30.59,ENE,67,1.0,1.0,61,0.00,,CLR,0.00,VWS V14.01,2013-05-03 12:10:00,
2013-05-03 08:20:00,53.0,39.9,30.59,East,90,2.0,2.0,61,0.00,,CLR,0.00,VWS V14.01,2013-05-03 12:20:00,
2013-05-03 08:30:00,54.0,40.0,30.58,East,90,1.0,2.0,59,0.00,,CLR,0.00,VWS V14.01,2013-05-03 12:30:00,
2013-05-03 08:40:00,53.0,39.5,30.58,ENE,67,1.0,1.0,60,0.00,,CLR,0.00,VWS V14.01,2013-05-03 12:40:00,
2013-05-03 08:50:00,52.0,39.4,30.57,East,90,1.0,1.0,62,0.00,,CLR,0.00,VWS V14.01,2013-05-03 12:50:00,
2013-05-03 09:00:00,54.0,40.4,30.57,NE,45,1.0,1.0,60,0.00,,CLR,0.00,VWS V14.01,2013-05-03 13:00:00,
2013-05-03 09:10:00,55.0,38.7,30.57,NE,45,1.0,1.0,54,0.00,,CLR,0.00,VWS V14.01,2013-05-03 13:10:00,
2013-05-03 09:20:00,55.0,39.6,30.58,East,90,2.0,2.0,56,0.00,,CLR,0.00,VWS V14.01,2013-05-03 13:20:00,
2013-05-03 09:30:00,55.0,39.2,30.57,ESE,112,2.0,2.0,55,0.00,,CLR,0.00,VWS V14.01,2013-05-03 13:30:00,
2013-05-03 09:40:00,55.0,41.8,30.57,South,180,2.0,2.0,61,0.00,,CLR,0.00,VWS V14.01,2013-05-03 13:40:00,
2013-05-03 09:50:00,55.0,41.4,30.57,East,90,1.0,2.0,60,0.00,,CLR,0.00,VWS V14.01,2013-05-03 13:50:00,
2013-05-03 10:00:00,55.0,42.2,30.57,ESE,112,2.0,2.0,62,0.00,,CLR,0.00,VWS V14.01,2013-05-03 14:00:00,
2013-05-03 10:10:00,56.0,42.3,30.57,South,180,2.0,2.0,60,0.00,,CLR,0.00,VWS V14.01,2013-05-03 14:10:00,
2013-05-03 10:20:00,56.0,42.8,30.57,ENE,67,1.0,2.0,61,0.00,,CLR,0.00,VWS V14.01,2013-05-03 14:20:00,
2013-05-03 10:30:00,54.0,42.1,30.57,ESE,112,3.0,3.0,64,0.00,,CLR,0.00,VWS V14.01,2013-05-03 14:30:00,
2013-05-03 10:40:00,55.0,42.7,30.56,East,90,2.0,3.0,63,0.00,,CLR,0.00,VWS V14.01,2013-05-03 14:40:00,
2013-05-03 10:50:00,55.0,42.2,30.56,ESE,112,2.0,2.0,62,0.00,,CLR,0.00,VWS V14.01,2013-05-03 14:50:00,
2013-05-03 11:00:00,55.0,41.8,30.56,ESE,112,2.0,2.0,61,0.00,,CLR,0.00,VWS V14.01,2013-05-03 15:00:00,
2013-05-03 11:10:00,55.0,41.4,30.56,SSE,157,2.0,2.0,60,0.00,,CLR,0.00,VWS V14.01,2013-05-03 15:10:00,
2013-05-03 11:20:00,56.0,41.9,30.55,North,360,2.0,2.0,59,0.00,,CLR,0.00,VWS V14.01,2013-05-03 15:20:00,
2013-05-03 11:30:00,56.0,42.8,30.55,East,90,2.0,2.0,61,0.00,,CLR,0.00,VWS V14.01,2013-05-03 15:30:00,
2013-05-03 11:40:00,57.0,42.4,30.55,East,90,1.0,2.0,58,0.00,,CLR,0.00,VWS V14.01,2013-05-03 15:40:00,
2013-05-03 11:50:00,57.0,41.0,30.55,ENE,67,2.0,2.0,55,0.00,,CLR,0.00,VWS V14.01,2013-05-03 15:50:00,
2013-05-03 12:00:00,58.0,41.9,30.54,ESE,112,2.0,2.0,55,0.00,,CLR,0.00,VWS V14.01,2013-05-03 16:00:00,
2013-05-03 12:10:00,57.0,41.9,30.54,NE,45,2.0,2.0,57,0.00,,CLR,0.00,VWS V14.01,2013-05-03 16:10:00,
2013-05-03 12:20:00,58.0,42.4,30.54,SSW,202,1.0,2.0,56,0.00,,CLR,0.00,VWS V14.01,2013-05-03 16:20:00,
2013-05-03 12:30:00,57.0,41.5,30.53,ESE,112,2.0,2.0,56,0.00,,CLR,0.00,VWS V14.01,2013-05-03 16:30:00,
2013-05-03 12:40:00,57.0,41.0,30.53,East,90,2.0,2.0,55,0.00,,CLR,0.00,VWS V14.01,2013-05-03 16:40:00,
2013-05-03 12:50:00,57.0,41.5,30.53,SE,135,2.0,2.0,56,0.00,,CLR,0.00,VWS V14.01,2013-05-03 16:50:00,
2013-05-03 13:00:00,59.0,42.4,30.53,ESE,112,1.0,2.0,54,0.00,,CLR,0.00,VWS V14.01,2013-05-03 17:00:00,
2013-05-03 13:10:00,59.0,42.4,30.53,ENE,67,2.0,2.0,54,0.00,,CLR,0.00,VWS V14.01,2013-05-03 17:10:00,
2013-05-03 13:20:00,60.0,42.8,30.53,ESE,112,1.0,2.0,53,0.00,,CLR,0.00,VWS V14.01,2013-05-03 17:20:00,
2013-05-03 13:30:00,60.0,42.8,30.53,North,360,2.0,2.0,53,0.00,,CLR,0.00,VWS V14.01,2013-05-03 17:30:00,
2013-05-03 13:40:00,60.0,42.3,30.53,East,90,2.0,2.0,52,0.00,,CLR,0.00,VWS V14.01,2013-05-03 17:40:00,
2013-05-03 13:50:00,60.0,43.3,30.52,ESE,112,2.0,2.0,54,0.00,,CLR,0.00,VWS V14.01,2013-05-03 17:50:00,
2013-05-03 14:00:00,59.0,42.4,30.51,SE,135,2.0,2.0,54,0.00,,CLR,0.00,VWS V14.01,2013-05-03 18:00:00,
2013-05-03 14:10:00,59.0,43.3,30.51,ESE,112,2.0,2.0,56,0.00,,CLR,0.00,VWS V14.01,2013-05-03 18:10:00,
2013-05-03 14:20:00,60.0,43.8,30.51,East,90,2.0,2.0,55,0.00,,CLR,0.00,VWS V14.01,2013-05-03 18:20:00,
2013-05-03 14:30:00,59.0,43.3,30.51,ESE,112,2.0,2.0,56,0.00,,CLR,0.00,VWS V14.01,2013-05-03 18:30:00,
2013-05-03 14:40:00,58.0,42.4,30.51,ESE,112,2.0,2.0,56,0.00,,CLR,0.00,VWS V14.01,2013-05-03 18:40:00,
2013-05-03 14:50:00,58.0,43.3,30.51,East,90,2.0,2.0,58,0.00,,CLR,0.00,VWS V14.01,2013-05-03 18:50:00,
2013-05-03 15:00:00,58.0,43.8,30.51,ESE,112,1.0,2.0,59,0.00,,CLR,0.00,VWS V14.01,2013-05-03 19:00:00,
2013-05-03 15:10:00,58.0,43.8,30.50,East,90,2.0,2.0,59,0.00,,CLR,0.00,VWS V14.01,2013-05-03 19:10:00,
2013-05-03 15:20:00,58.0,43.3,30.50,SE,135,1.0,2.0,58,0.00,,CLR,0.00,VWS V14.01,2013-05-03 19:20:00,
2013-05-03 15:30:00,58.0,43.8,30.50,ESE,112,2.0,2.0,59,0.00,,CLR,0.00,VWS V14.01,2013-05-03 19:30:00,
2013-05-03 15:40:00,56.0,41.9,30.49,ESE,112,2.0,2.0,59,0.00,,CLR,0.00,VWS V14.01,2013-05-03 19:40:00,
2013-05-03 15:50:00,56.0,41.9,30.49,ESE,112,2.0,2.0,59,0.00,,CLR,0.00,VWS V14.01,2013-05-03 19:50:00,
2013-05-03 16:00:00,57.0,41.9,30.49,ESE,112,2.0,2.0,57,0.00,,CLR,0.00,VWS V14.01,2013-05-03 20:00:00,
2013-05-03 16:10:00,57.0,41.9,30.49,East,90,2.0,2.0,57,0.00,,CLR,0.00,VWS V14.01,2013-05-03 20:10:00,
2013-05-03 16:20:00,59.0,42.9,30.49,ESE,112,1.0,2.0,55,0.00,,CLR,0.00,VWS V14.01,2013-05-03 20:20:00,
2013-05-03 16:30:00,56.0,41.5,30.49,ESE,112,2.0,2.0,58,0.00,,CLR,0.00,VWS V14.01,2013-05-03 20:30:00,
2013-05-03 16:40:00,57.0,41.9,30.49,ESE,112,1.0,2.0,57,0.00,,CLR,0.00,VWS V14.01,2013-05-03 20:40:00,
2013-05-03 16:50:00,57.0,41.5,30.48,East,90,1.0,1.0,56,0.00,,CLR,0.00,VWS V14.01,2013-05-03 20:50:00,
2013-05-03 17:00:00,57.0,41.5,30.48,NNE,22,1.0,1.0,56,0.00,,CLR,0.00,VWS V14.01,2013-05-03 21:00:00,
2013-05-03 17:10:00,57.0,41.0,30.47,SE,135,1.0,1.0,55,0.00,,CLR,0.00,VWS V14.01,2013-05-03 21:10:00,
2013-05-03 17:20:00,55.0,40.5,30.47,East,90,1.0,1.0,58,0.00,,CLR,0.00,VWS V14.01,2013-05-03 21:20:00,
2013-05-03 17:24:00,57.0,41.5,30.47,East,90,1.0,1.0,56,0.00,,CLR,0.00,VWS V14.01,2013-05-03 21:24:00,
2013-05-03 17:25:00,56.0,41.0,30.47,East,90,2.0,2.0,57,0.00,,CLR,0.00,VWS V14.01,2013-05-03 21:25:00,
2013-05-03 17:26:00,56.0,41.5,30.47,ESE,112,2.0,2.0,58,0.00,,CLR,0.00,VWS V14.01,2013-05-03 21:26:00,
2013-05-03 17:27:00,55.0,40.5,30.47,ESE,112,2.0,4.0,58,0.00,,CLR,0.00,VWS V14.01,2013-05-03 21:27:00,
2013-05-03 17:28:00,55.0,41.0,30.47,East,90,1.0,4.0,59,0.00,,CLR,0.00,VWS V14.01,2013-05-03 21:28:00,
2013-05-03 17:30:00,55.0,41.0,30.47,East,90,1.0,4.0,59,0.00,,CLR,0.00,VWS V14.01,2013-05-03 21:30:00,
2013-05-03 17:40:00,55.0,40.5,30.47,East,90,2.0,2.0,58,0.00,,CLR,0.00,VWS V14.01,2013-05-03 21:40:00,
2013-05-03 17:50:00,54.0,40.0,30.47,East,90,0.0,2.0,59,0.00,,CLR,0.00,VWS V14.01,2013-05-03 21:50:00,
2013-05-03 18:00:00,54.0,40.4,30.47,ESE,112,0.0,1.0,60,0.00,,CLR,0.00,VWS V14.01,2013-05-03 22:00:00,
2013-05-03 18:10:00,53.0,39.9,30.46,ESE,112,0.0,0.0,61,0.00,,CLR,0.00,VWS V14.01,2013-05-03 22:10:00,
2013-05-03 18:20:00,53.0,41.2,30.46,ESE,112,0.0,0.0,64,0.00,,CLR,0.00,VWS V14.01,2013-05-03 22:20:00,
2013-05-03 18:25:00,55.0,40.5,30.47,ESE,112,2.0,4.0,58,0.00,,CLR,0.00,VWS V14.01,2013-05-03 22:25:00,
2013-05-03 18:26:00,55.0,41.0,30.47,East,90,0.0,4.0,59,0.00,,CLR,0.00,VWS V14.01,2013-05-03 22:26:00,
2013-05-03 18:27:00,55.0,41.0,30.47,East,90,0.0,4.0,59,0.00,,CLR,0.00,VWS V14.01,2013-05-03 22:27:00,
2013-05-03 18:30:00,55.0,41.0,30.47,East,90,1.0,2.0,59,0.00,,CLR,0.00,VWS V14.01,2013-05-03 22:30:00,
2013-05-03 18:31:00,55.0,40.5,30.47,ESE,112,1.0,2.0,58,0.00,,CLR,0.00,VWS V14.01,2013-05-03 22:31:00,
2013-05-03 18:32:00,55.0,40.5,30.47,SE,135,0.0,2.0,58,0.00,,CLR,0.00,VWS V14.01,2013-05-03 22:32:00,
2013-05-03 18:36:00,55.0,41.0,30.47,East,90,0.0,2.0,59,0.00,,CLR,0.00,VWS V14.01,2013-05-03 22:36:00,
2013-05-03 18:37:00,55.0,40.5,30.47,East,90,0.0,2.0,58,0.00,,CLR,0.00,VWS V14.01,2013-05-03 22:37:00,
2013-05-03 18:40:00,51.0,40.8,30.45,ESE,112,0.0,0.0,68,0.00,,CLR,0.00,VWS V14.01,2013-05-03 22:40:00,
2013-05-03 18:41:00,55.0,40.5,30.47,SSE,157,0.0,2.0,58,0.00,,CLR,0.00,VWS V14.01,2013-05-03 22:41:00,
2013-05-03 18:50:00,50.0,40.2,30.45,ESE,112,0.0,0.0,69,0.00,,CLR,0.00,VWS V14.01,2013-05-03 22:50:00,
2013-05-03 19:00:00,50.0,41.7,30.45,ESE,112,0.0,0.0,73,0.00,,CLR,0.00,VWS V14.01,2013-05-03 23:00:00,
2013-05-03 19:10:00,49.0,41.8,30.45,ESE,112,0.0,0.0,76,0.00,,CLR,0.00,VWS V14.01,2013-05-03 23:10:00,
2013-05-03 19:20:00,48.0,41.5,30.45,ESE,112,0.0,0.0,78,0.00,,CLR,0.00,VWS V14.01,2013-05-03 23:20:00,
2013-05-03 19:30:00,47.0,41.2,30.44,ESE,112,0.0,0.0,80,0.00,,CLR,0.00,VWS V14.01,2013-05-03 23:30:00,
2013-05-03 19:40:00,47.0,41.8,30.44,ESE,112,0.0,0.0,82,0.00,,CLR,0.00,VWS V14.01,2013-05-03 23:40:00,
2013-05-03 19:50:00,46.0,41.8,30.45,ESE,112,0.0,0.0,85,0.00,,CLR,0.00,VWS V14.01,2013-05-03 23:50:00,
2013-05-03 20:00:00,46.0,41.8,30.44,ESE,112,0.0,0.0,85,0.00,,CLR,0.00,VWS V14.01,2013-05-04 00:00:00,
2013-05-03 20:10:00,45.0,41.1,30.44,ESE,112,0.0,0.0,86,0.00,,CLR,0.00,VWS V14.01,2013-05-04 00:10:00,
2013-05-03 20:20:00,45.0,41.4,30.44,ESE,112,0.0,0.0,87,0.00,,CLR,0.00,VWS V14.01,2013-05-04 00:20:00,
2013-05-03 20:30:00,44.0,40.7,30.44,ESE,112,0.0,0.0,88,0.00,,CLR,0.00,VWS V14.01,2013-05-04 00:30:00,
2013-05-03 20:40:00,44.0,41.0,30.44,ESE,112,0.0,0.0,89,0.00,,CLR,0.00,VWS V14.01,2013-05-04 00:40:00,
2013-05-03 20:50:00,43.0,40.6,30.44,ESE,112,0.0,0.0,91,0.00,,CLR,0.00,VWS V14.01,2013-05-04 00:50:00,
2013-05-03 21:00:00,43.0,41.1,30.44,ESE,112,0.0,0.0,93,0.00,,CLR,0.00,VWS V14.01,2013-05-04 01:00:00,
2013-05-03 21:10:00,43.0,41.4,30.43,ESE,112,0.0,0.0,94,0.00,,CLR,0.00,VWS V14.01,2013-05-04 01:10:00,
2013-05-03 21:20:00,42.0,40.1,30.43,ESE,112,0.0,0.0,93,0.00,,CLR,0.00,VWS V14.01,2013-05-04 01:20:00,
2013-05-03 21:30:00,42.0,40.7,30.43,ESE,112,0.0,0.0,95,0.00,,CLR,0.00,VWS V14.01,2013-05-04 01:30:00,
2013-05-03 21:40:00,42.0,40.9,30.43,ESE,112,0.0,0.0,96,0.00,,CLR,0.00,VWS V14.01,2013-05-04 01:40:00,
2013-05-03 21:50:00,42.0,40.9,30.42,ESE,112,0.0,0.0,96,0.00,,CLR,0.00,VWS V14.01,2013-05-04 01:50:00,
2013-05-03 22:00:00,41.0,40.0,30.42,ESE,112,0.0,0.0,96,0.00,,CLR,0.00,VWS V14.01,2013-05-04 02:00:00,
2013-05-03 22:10:00,41.0,40.0,30.41,ESE,112,0.0,0.0,96,0.00,,CLR,0.00,VWS V14.01,2013-05-04 02:10:00,
2013-05-03 22:20:00,41.0,40.0,30.41,ESE,112,0.0,0.0,96,0.00,,CLR,0.00,VWS V14.01,2013-05-04 02:20:00,
2013-05-03 22:30:00,41.0,40.0,30.41,ESE,112,0.0,0.0,96,0.00,,CLR,0.00,VWS V14.01,2013-05-04 02:30:00,
2013-05-03 22:40:00,40.0,39.0,30.41,ESE,112,0.0,0.0,96,0.00,,CLR,0.00,VWS V14.01,2013-05-04 02:40:00,
2013-05-03 22:50:00,40.0,39.0,30.41,ESE,112,0.0,0.0,96,0.00,,CLR,0.00,VWS V14.01,2013-05-04 02:50:00,
2013-05-03 23:00:00,40.0,39.0,30.40,ESE,112,0.0,0.0,96,0.00,,CLR,0.00,VWS V14.01,2013-05-04 03:00:00,
2013-05-03 23:10:00,39.0,38.0,30.40,ESE,112,0.0,0.0,96,0.00,,CLR,0.00,VWS V14.01,2013-05-04 03:10:00,
2013-05-03 23:20:00,39.0,38.0,30.39,ESE,112,0.0,0.0,96,0.00,,CLR,0.00,VWS V14.01,2013-05-04 03:20:00,
2013-05-03 23:30:00,39.0,38.0,30.39,ESE,112,0.0,0.0,96,0.00,,CLR,0.00,VWS V14.01,2013-05-04 03:30:00,
2013-05-03 23:40:00,39.0,38.0,30.39,ESE,112,0.0,0.0,96,0.00,,CLR,0.00,VWS V14.01,2013-05-04 03:40:00,
2013-05-03 23:50:00,39.0,38.0,30.38,ESE,112,0.0,0.0,96,0.00,,CLR,0.00,VWS V14.01,2013-05-04 03:50:00,